Location: Newark
(44.6394°N, 22.2943°E)
Time: 10:21:23
(UTC+00:00)

X-37B - Visible Passes

Search period start: 28 November 2023 00:00
Search period end: 08 December 2023 00:00
Orbit: 277 x 277 km, 45.0° (Epoch: 01 November)

Date Brightness Start Highest point End Pass type
(mag) Time Alt. Az. Time Alt. Az. Time Alt. Az.
29 Nov 3.2 17:03:37 10° SW 17:04:00 13° SW 17:04:00 13° SW visible
30 Nov 2.6 15:31:52 10° SSE 15:32:43 11° SSE 15:33:34 10° SE visible
30 Nov 3.1 17:04:07 10° WSW 17:04:45 16° WSW 17:04:45 16° WSW visible
01 Dec 2.0 15:31:25 10° SSW 15:33:14 18° SSE 15:35:03 10° ESE visible
01 Dec 3.1 17:04:44 10° WSW 17:05:26 17° WSW 17:05:26 17° WSW visible
02 Dec 1.3 15:31:36 10° SW 15:33:47 29° SSE 15:36:01 10° E visible
02 Dec 3.2 17:05:24 10° W 17:06:05 17° W 17:06:05 17° W visible
03 Dec 0.6 15:32:02 10° WSW 15:34:25 46° SSE 15:36:42 11° E visible
03 Dec 3.2 17:06:07 10° W 17:06:44 16° W 17:06:44 16° W visible
04 Dec 0.0 15:32:37 10° WSW 15:35:04 69° SSE 15:37:19 12° E visible
04 Dec 3.2 17:06:49 10° W 17:07:22 15° W 17:07:22 15° W visible
05 Dec -0.1 15:33:17 10° W 15:35:44 89° WSW 15:37:58 12° E visible
05 Dec 3.3 17:07:30 10° W 17:08:01 15° W 17:08:01 15° W visible
06 Dec -0.1 15:33:59 10° W 15:36:26 79° N 15:38:39 12° E visible
06 Dec 3.3 17:08:12 10° W 17:08:42 14° W 17:08:42 14° W visible
07 Dec -0.2 15:34:41 10° W 15:37:09 78° N 15:39:24 12° E visible
07 Dec 3.4 17:08:55 10° W 17:09:27 15° W 17:09:27 15° W visible
